Date,TemperatureHighF,TemperatureAvgF,TemperatureLowF,DewpointHighF,DewpointAvgF,DewpointLowF,HumidityHigh,HumidityAvg,HumidityLow,PressureMaxIn,PressureMinIn,WindSpeedMaxMPH,WindSpeedAvgMPH,GustSpeedMaxMPH,PrecipitationSumIn
2012-1-5,54.1,51.1,48.6,31.9,29.9,28.7,52,44,39,30.05,29.98,5,2,9,0.00
2012-1-6,70.0,53.9,42.3,46.9,38.2,31.7,90,57,27,30.01,29.85,11,2,21,0.00
2012-1-7,59.5,46.4,35.8,35.8,25.8,18.7,77,47,22,30.19,30.01,8,3,14,0.00
2012-1-8,46.8,42.4,32.7,32.4,28.3,23.8,92,58,45,30.27,30.18,4,2,10,0.00
2012-1-9,57.0,37.4,25.2,36.3,27.9,23.1,99,73,28,30.29,30.14,5,1,11,0.00
2012-1-10,56.3,40.7,25.7,41.6,29.0,24.0,99,69,29,30.17,29.74,4,1,9,0.02
2012-1-11,60.1,45.4,28.2,41.8,35.4,27.5,99,73,31,29.87,29.65,8,2,21,0.00
2012-1-12,27.7,21.4,18.0,27.5,16.2,9.7,99,81,56,30.04,29.88,10,4,23,0.00
2012-1-13,37.0,23.5,14.0,13.4,7.8,3.6,68,52,26,30.19,30.03,6,1,12,0.00
2012-1-14,48.0,35.1,22.8,31.7,24.9,13.2,97,68,49,30.31,29.98,8,2,20,0.00
2012-1-15,59.5,41.5,25.9,34.4,29.8,25.6,99,67,32,30.31,30.01,11,4,25,0.00
2012-1-16,71.8,60.1,43.9,59.1,51.7,34.0,88,74,54,30.01,29.74,12,5,26,0.00
2012-1-17,65.7,36.4,19.4,59.7,29.5,15.5,97,76,53,30.38,29.71,14,4,25,0.00
2012-1-18,43.2,26.8,13.1,21.5,17.3,12.2,99,71,33,30.38,30.00,7,2,14,0.00
2012-1-19,58.5,38.5,26.8,31.8,25.2,19.9,85,62,30,30.01,29.89,7,2,12,0.00
2012-1-20,38.3,31.6,25.7,38.0,30.9,23.6,99,97,85,30.05,29.76,9,3,17,0.00
2012-1-21,41.0,27.3,17.2,30.3,23.6,15.4,99,86,64,30.19,29.88,8,3,18,0.00
2012-1-22,58.5,42.4,28.6,54.4,40.4,28.3,99,94,48,29.91,29.49,10,4,25,0.00
2012-1-23,53.8,42.2,31.6,36.8,30.0,23.8,87,64,35,30.12,29.67,8,3,20,0.00
2012-1-24,62.1,42.6,25.7,30.2,25.1,17.0,93,56,18,30.27,30.12,6,2,13,0.00
2012-1-25,44.4,41.3,38.1,42.7,39.1,29.3,99,93,55,30.21,29.92,7,2,16,0.84
2012-1-26,50.2,40.1,32.7,42.9,37.2,28.8,99,90,68,29.94,29.83,6,1,12,0.02
2012-1-27,48.0,38.1,25.3,41.3,33.8,25.1,99,85,64,30.16,29.92,8,1,17,0.01
2012-1-28,49.3,36.7,23.9,34.9,22.9,13.7,99,62,24,30.43,30.17,8,2,18,0.00
2012-1-29,57.4,40.8,29.1,29.1,23.6,20.0,71,52,28,30.35,29.90,5,2,15,0.00
2012-1-30,69.4,52.5,35.6,46.5,36.8,26.6,73,56,36,29.90,29.71,11,3,24,0.00
2012-1-31,64.6,56.8,46.8,56.2,50.7,35.8,99,81,57,29.77,29.64,11,3,20,0.00
2012-2-1,66.7,51.3,39.2,53.2,37.6,29.6,99,65,27,29.92,29.77,5,1,10,0.00
2012-2-2,64.2,48.9,28.0,37.0,30.1,20.1,99,56,19,30.00,29.88,8,2,17,0.00
2012-2-3,51.8,48.1,45.7,51.5,42.8,33.8,99,84,51,29.88,29.61,10,4,24,0.63
2012-2-4,52.0,45.7,36.7,51.7,44.9,36.4,99,97,87,29.92,29.64,8,2,12,0.00
2012-2-5,45.0,36.6,29.5,39.1,33.9,28.2,99,91,64,30.05,29.92,4,2,14,0.00
2012-2-6,57.7,38.8,24.4,37.8,29.4,24.2,99,73,34,30.03,29.91,4,1,11,0.00
2012-2-7,46.8,37.0,28.4,40.1,34.9,28.1,99,92,68,30.06,29.92,4,1,8,0.08
2012-2-8,36.5,34.1,31.8,36.2,32.3,30.6,99,93,82,30.16,30.06,6,2,12,0.00
2012-2-9,41.9,36.5,32.4,35.5,31.8,29.8,99,84,64,30.07,29.83,4,1,8,0.00
2012-2-10,38.1,31.9,16.3,37.9,27.9,7.9,99,86,52,30.06,29.76,6,1,13,0.08
2012-2-11,30.7,18.5,9.9,9.4,6.0,0.3,85,61,29,30.34,30.07,8,1,15,0.13
2012-2-12,42.8,27.7,9.7,9.3,0.2,-13.2,83,39,10,30.31,29.91,4,1,13,0.00
2012-2-13,33.3,30.1,27.0,32.1,26.5,7.1,99,90,33,29.91,29.52,7,3,17,0.00
2012-2-14,50.7,39.1,32.4,38.9,35.1,32.1,99,87,60,29.69,29.55,7,2,14,0.09
2012-2-15,49.1,43.3,35.8,48.8,43.0,35.5,99,99,96,29.73,29.58,6,2,14,0.15
2012-2-16,55.8,43.4,33.6,45.4,38.4,30.7,99,85,46,30.00,29.71,6,1,11,0.01
2012-2-17,109.2,46.3,32.5,45.8,39.7,31.7,99,81,10,29.93,29.78,6,1,11,0.00
2012-2-18,47.3,42.4,38.7,45.8,35.8,27.5,99,78,60,29.85,29.76,8,3,14,0.01
2012-2-19,57.7,43.5,32.0,33.4,28.2,22.0,91,57,27,29.83,29.74,7,1,12,0.00
2012-2-20,57.0,44.9,34.0,43.2,32.0,26.2,99,64,32,29.83,29.45,11,4,26,0.11
2012-2-21,59.9,47.6,39.7,38.5,30.3,19.2,87,56,23,29.74,29.49,9,2,19,0.00
2012-2-22,72.0,51.0,32.2,50.9,33.7,18.1,91,58,13,29.53,29.20,8,1,17,0.00
2012-2-23,73.0,56.4,41.0,44.4,37.2,29.8,76,51,26,29.48,28.99,8,3,17,0.00
2012-2-24,50.2,39.8,32.9,31.3,23.6,12.4,81,55,23,29.92,29.49,10,3,16,0.00
2012-2-25,54.5,41.1,24.8,29.8,23.9,20.6,93,53,29,30.05,29.81,7,2,17,0.00
2012-2-26,66.0,50.4,36.7,35.7,29.1,21.1,74,47,20,29.88,29.72,11,3,21,0.00
2012-2-27,62.8,50.0,41.0,36.5,29.3,21.3,82,48,22,30.12,29.88,10,2,17,0.00
2012-2-28,70.3,55.1,42.3,62.0,44.2,26.6,99,69,47,30.01,29.36,10,4,24,0.00
2012-2-29,65.5,53.8,42.6,62.2,33.0,19.7,99,50,20,29.63,29.38,10,2,26,0.30
2012-3-1,76.1,55.5,35.4,36.4,28.1,15.4,74,42,10,29.64,29.28,10,2,29,0.00
2012-3-2,59.5,45.9,31.5,56.9,39.2,30.6,99,79,51,29.65,29.12,8,2,18,0.00
2012-3-3,50.7,39.0,27.5,30.7,24.2,-14.3,99,61,10,29.77,29.64,8,2,29,0.01
2012-3-4,64.9,47.6,27.3,35.7,27.3,17.2,83,50,18,29.87,29.59,10,3,19,0.00
2012-3-5,63.3,48.1,29.1,31.5,23.0,10.0,84,43,13,30.08,29.87,8,2,15,0.00
2012-3-6,72.0,59.3,45.1,47.1,34.5,17.3,66,43,13,29.89,29.65,16,5,28,0.00
2012-3-7,68.2,63.4,59.2,58.3,53.8,47.0,84,71,63,29.72,29.63,11,5,26,0.00
2012-3-8,63.0,41.4,31.5,58.3,39.5,30.2,99,93,80,30.20,29.67,12,4,24,0.14
2012-3-9,64.2,46.5,29.3,30.0,24.9,17.4,97,50,17,30.24,30.12,8,2,16,0.00
2012-3-10,66.7,51.5,33.8,33.3,26.6,13.7,86,43,13,30.14,29.91,8,2,15,0.00
2012-3-11,55.9,51.8,47.3,55.7,47.4,32.1,99,87,49,29.92,29.60,8,4,18,0.39
2012-3-12,80.8,63.5,51.8,55.0,51.4,42.0,99,71,26,29.75,29.58,11,3,20,0.01
2012-3-13,85.6,66.8,48.6,60.1,51.0,39.8,99,64,21,29.82,29.70,9,2,14,0.00
2012-3-14,83.7,71.5,59.9,65.6,60.9,57.0,99,72,46,29.80,29.71,11,3,20,0.00
2012-3-15,80.8,70.5,61.0,66.8,62.8,57.9,96,78,59,29.84,29.72,8,2,20,0.00
2012-3-16,82.9,70.5,61.7,67.9,62.8,59.5,99,79,50,29.83,29.69,8,2,15,0.00
2012-3-17,84.7,71.3,61.2,65.5,60.0,52.4,99,71,35,29.77,29.63,9,2,20,0.00
2012-3-18,81.3,70.5,62.4,65.1,60.5,56.4,98,73,45,29.74,29.62,8,3,17,0.00
2012-3-19,75.9,67.2,57.2,67.4,62.8,56.9,99,86,68,29.62,29.46,11,3,24,0.15
2012-3-20,73.8,58.9,55.2,64.9,58.0,55.0,99,97,69,29.63,29.48,8,1,23,1.24
2012-3-21,63.0,56.7,51.6,62.7,56.4,51.4,99,99,98,29.63,29.42,9,2,27,0.51
2012-3-22,66.2,54.2,47.5,55.8,51.2,47.2,99,91,57,29.72,29.58,11,3,33,0.15
2012-3-23,57.6,50.9,43.9,52.4,49.4,43.6,99,95,77,29.67,29.57,4,1,14,0.04
2012-3-24,74.8,60.4,46.6,56.9,51.0,46.3,99,75,44,29.75,29.65,6,1,14,0.01
2012-3-25,80.4,64.5,47.8,61.1,54.6,47.6,99,74,44,29.85,29.74,4,1,11,0.00
2012-3-26,83.7,69.2,55.4,63.0,58.0,54.7,99,71,39,29.87,29.71,5,2,14,0.00
2012-3-27,83.8,70.2,60.1,63.3,58.5,53.4,94,69,37,29.79,29.67,8,2,18,0.00
2012-3-28,83.5,71.1,57.2,64.0,60.6,56.9,99,71,47,29.78,29.63,5,1,10,0.00
2012-3-29,81.1,68.6,55.8,63.7,57.3,54.5,99,70,42,29.71,29.52,5,1,14,0.00
2012-3-30,83.5,69.2,57.9,67.5,61.1,55.3,99,78,49,29.59,29.47,4,1,8,0.00
2012-3-31,87.3,70.8,56.5,69.6,61.1,56.2,99,75,44,29.61,29.51,5,1,10,0.00
2012-4-1,90.5,75.5,61.2,69.9,62.9,57.9,99,68,37,29.52,29.33,6,2,16,0.00
2012-4-2,90.1,76.4,62.8,67.4,59.3,36.5,99,62,16,29.53,29.37,6,1,14,0.00
2012-4-3,81.7,69.7,61.9,64.5,60.6,58.0,93,74,48,29.63,29.51,4,1,8,0.00
2012-4-4,77.7,68.1,59.7,65.7,60.9,57.6,99,79,54,29.54,29.42,5,1,11,0.00
2012-4-5,66.4,54.4,47.5,59.7,52.9,47.2,99,95,77,29.74,29.42,7,2,16,0.00
2012-4-6,72.0,57.1,42.8,50.3,41.3,30.0,99,62,22,29.88,29.73,6,1,11,0.00
2012-4-7,63.0,55.5,46.6,60.3,47.6,36.8,99,77,49,30.02,29.81,7,1,19,0.00
2012-4-8,72.9,58.4,46.4,57.1,42.2,28.4,99,62,21,30.09,29.91,4,1,13,0.17
2012-4-9,77.5,62.2,43.9,55.8,49.9,41.3,99,68,37,29.94,29.78,4,0,8,0.00
2012-4-10,71.6,60.0,50.2,56.1,39.3,26.2,95,51,23,29.93,29.79,5,1,12,0.00
2012-4-11,68.9,54.3,44.2,37.9,30.0,20.2,68,42,19,30.02,29.88,8,2,13,0.00
2012-4-12,63.0,53.8,43.3,43.9,38.0,29.4,71,56,39,29.91,29.73,6,2,16,0.00
2012-4-13,71.8,60.9,47.8,64.4,55.3,42.1,99,82,63,29.74,29.62,6,2,17,0.50
2012-4-14,77.9,69.2,59.5,68.9,64.4,59.3,99,86,66,29.72,29.46,8,2,20,0.64
2012-4-15,70.5,65.0,54.5,68.2,62.0,52.2,99,90,82,29.50,29.36,6,3,17,0.66
2012-4-16,70.3,58.3,47.3,52.4,47.0,42.5,99,69,43,29.96,29.49,4,1,12,0.01
2012-4-17,75.7,59.7,41.5,56.6,46.2,39.7,99,67,29,30.04,29.91,4,1,14,0.00
2012-4-18,77.0,62.6,46.4,52.0,48.1,38.9,99,64,30,29.95,29.71,6,1,14,0.00
2012-4-19,81.9,66.4,50.4,53.3,49.3,44.4,88,58,29,29.71,29.47,8,2,17,0.00
2012-4-20,64.0,50.9,38.7,59.5,48.4,38.4,99,92,67,29.75,29.48,8,2,15,0.12
2012-4-21,68.0,51.4,33.6,47.8,41.8,33.4,99,74,38,29.77,29.67,7,1,11,0.00
2012-4-22,59.5,51.7,43.3,48.4,44.4,42.2,99,78,55,29.89,29.66,10,2,19,0.00
2012-4-23,68.0,52.5,36.9,49.0,41.3,36.6,99,71,37,29.93,29.73,5,1,11,0.00
2012-4-24,83.1,63.2,40.1,57.7,49.8,39.8,99,67,34,29.73,29.41,6,1,14,0.00
2012-4-25,89.4,77.4,65.1,70.0,62.9,52.6,87,63,44,29.47,29.35,6,2,16,0.00
2012-4-26,87.6,75.2,61.5,68.7,58.0,43.5,99,61,23,29.67,29.47,6,2,15,0.00
2012-4-27,69.4,64.3,58.3,60.3,57.3,54.8,96,78,66,29.68,29.47,9,3,27,0.00
2012-4-28,80.2,70.5,59.2,69.7,65.6,58.9,99,85,65,29.69,29.51,4,1,11,0.00
2012-4-29,81.1,71.3,63.7,69.5,66.4,61.9,99,86,58,29.77,29.65,6,1,12,0.00
2012-4-30,78.3,68.5,59.5,68.0,64.6,59.3,99,88,64,29.75,29.63,4,1,8,0.65
2012-5-1,85.1,73.4,60.4,71.5,66.0,60.2,99,80,55,29.65,29.52,8,2,20,0.20
2012-5-2,86.5,73.3,54.1,69.1,64.7,39.5,97,76,38,30.26,29.54,6,2,17,0.85
2012-5-3,84.2,75.1,65.7,74.7,70.6,65.4,99,87,70,30.03,29.95,7,2,19,0.00
2012-5-4,88.7,77.6,66.0,77.0,71.9,65.8,99,84,65,30.05,29.90,4,2,14,0.00
2012-5-5,90.7,78.8,66.4,73.8,70.8,66.1,99,78,53,30.00,29.90,4,1,11,0.00
2012-5-6,91.0,76.3,67.3,77.2,69.4,62.8,99,80,56,29.97,29.88,5,1,15,0.00
2012-5-7,77.7,66.7,59.4,70.0,64.3,59.1,99,92,71,30.07,29.88,7,2,14,0.46
2012-5-8,77.5,64.2,53.4,59.1,52.3,44.6,99,70,34,30.15,30.04,5,1,10,0.01
2012-5-9,75.7,62.0,48.2,54.1,49.7,45.3,99,68,36,30.14,30.03,5,1,13,0.00
2012-5-10,80.8,64.3,45.3,56.5,50.5,45.1,99,66,33,30.09,29.99,4,1,8,0.00
2012-5-11,74.1,65.9,55.0,57.9,54.5,51.7,90,68,50,30.19,30.03,5,1,11,0.00
2012-5-12,82.4,67.4,58.3,61.9,58.2,51.1,99,76,34,30.26,30.18,7,1,17,0.00
2012-5-13,79.5,66.8,55.8,64.8,59.5,55.5,99,80,51,30.26,30.17,6,2,12,0.00
2012-5-14,80.8,66.7,53.1,61.0,52.9,44.2,99,67,28,30.24,30.11,5,1,11,0.00
2012-5-15,84.4,67.8,48.4,59.1,52.2,46.7,99,63,28,30.18,30.07,5,0,9,0.01
2012-5-16,87.4,70.4,52.2,63.1,54.4,48.2,99,62,30,30.15,30.06,5,1,11,0.00
2012-5-17,89.1,72.0,51.1,56.4,49.4,34.5,98,51,15,30.14,30.00,4,1,9,0.00
2012-5-18,89.2,75.4,60.6,63.4,55.1,50.0,68,51,34,30.06,29.93,6,1,11,0.00
2012-5-19,87.6,76.6,64.8,65.6,62.3,58.8,92,64,41,30.08,29.98,7,2,17,0.00
2012-5-20,82.4,71.9,62.4,69.5,65.0,62.2,99,80,58,30.21,30.08,4,0,8,0.39
2012-5-21,77.5,65.8,52.7,62.7,51.7,40.0,99,66,28,30.28,30.17,8,2,17,0.01
2012-5-22,83.5,66.0,45.3,58.9,47.2,41.1,99,58,25,30.19,29.94,4,1,11,0.00
2012-5-23,88.7,74.6,58.6,62.9,55.9,48.6,75,54,39,29.94,29.70,6,2,17,0.00
2012-5-24,89.1,78.2,67.3,71.4,66.4,60.8,87,68,51,29.86,29.67,7,2,20,0.00
2012-5-25,92.8,81.4,71.6,75.0,71.0,69.0,93,72,48,30.03,29.86,8,2,20,0.00
2012-5-26,95.4,81.8,69.6,75.0,68.7,59.0,99,69,32,30.11,30.03,8,1,52,0.00
2012-5-27,93.7,81.2,68.2,70.7,62.0,53.4,92,56,26,30.09,29.93,6,2,15,0.00
2012-5-28,91.4,81.6,71.1,72.7,67.8,59.1,85,64,47,29.97,29.88,6,1,18,0.00
2012-5-29,96.4,79.8,64.2,72.4,63.6,53.8,99,63,25,30.01,29.87,4,1,9,0.17
2012-5-30,89.4,77.1,64.9,66.9,60.3,51.3,86,58,29,30.06,29.85,9,2,21,0.00
2012-5-31,77.7,65.9,55.6,70.9,61.3,53.8,99,86,63,30.01,29.81,7,2,13,1.23
2012-6-1,70.9,58.6,50.2,56.7,53.1,49.5,99,84,48,30.11,30.00,4,1,10,0.04
2012-6-2,85.5,68.1,50.4,63.5,58.1,50.1,99,74,45,30.05,29.93,4,0,9,0.00
2012-6-3,85.5,71.2,60.8,73.4,66.3,59.5,99,85,63,30.04,29.87,6,1,12,0.04
2012-6-4,93.4,79.5,67.8,74.6,69.9,67.4,99,76,48,29.99,29.87,4,1,14,0.00
2012-6-5,86.5,76.9,67.5,70.7,62.1,51.8,99,64,32,30.01,29.90,8,2,14,0.00
2012-6-6,86.9,74.8,61.7,60.6,57.1,55.1,82,56,35,30.10,29.99,6,1,13,0.00
2012-6-7,82.2,71.1,58.3,58.9,54.5,51.8,80,57,36,30.19,30.10,5,1,13,0.00
2012-6-8,87.8,73.0,54.7,61.5,54.4,46.9,99,58,26,30.17,30.00,5,1,13,0.00
2012-6-9,91.4,77.6,60.8,69.1,61.2,55.5,90,60,31,30.03,29.85,5,1,14,0.00
2012-6-10,91.0,78.5,67.5,72.1,67.8,63.4,99,72,44,29.93,29.85,7,2,14,0.00
2012-6-11,81.9,71.4,64.6,75.1,69.8,64.3,99,95,78,30.09,29.91,11,1,28,0.57
2012-6-12,86.2,73.6,61.9,65.1,58.5,50.8,99,65,32,30.24,30.09,6,1,13,0.00
2012-6-13,86.7,75.1,60.3,66.6,59.8,52.3,81,60,44,30.19,30.06,4,1,11,0.00
2012-6-14,91.6,77.5,61.5,65.1,58.5,51.6,92,57,26,30.12,29.95,5,1,11,0.00
2012-6-15,92.3,79.2,68.9,71.4,66.0,59.3,82,65,44,30.08,29.98,6,1,14,0.00
2012-6-16,92.8,81.0,68.4,74.1,70.1,66.0,99,73,42,30.17,30.03,6,1,17,0.00
2012-6-17,92.8,81.9,71.6,73.7,70.4,67.2,94,70,46,30.14,29.90,5,1,14,0.00
2012-6-18,94.5,82.9,70.0,73.7,66.8,58.1,95,62,32,29.94,29.86,7,2,17,0.00
2012-6-19,91.4,82.1,71.8,72.5,69.6,67.0,96,67,49,30.04,29.94,7,2,19,0.00
2012-6-20,92.5,82.5,73.2,72.6,69.0,64.7,91,66,42,30.09,30.02,6,2,16,0.00
2012-6-21,88.3,74.5,67.8,74.5,68.9,63.6,99,84,57,30.19,30.06,4,0,11,0.19
2012-6-22,92.8,79.2,62.4,68.1,61.7,51.6,99,61,28,30.13,30.00,8,1,11,0.00
2012-6-23,98.1,83.3,69.8,70.8,63.1,59.1,77,53,31,30.07,29.95,4,1,13,0.00
2012-6-24,101.5,86.6,70.2,72.1,65.8,58.9,79,52,31,30.08,29.97,4,0,8,0.00
2012-6-25,104.2,89.6,70.9,77.0,72.7,69.8,99,62,36,30.03,29.89,4,1,11,0.00
2012-6-26,98.8,86.1,73.9,72.8,63.1,49.2,77,48,33,30.01,29.91,4,1,12,0.00
2012-6-27,104.2,86.9,70.2,65.1,53.1,46.7,51,33,19,30.05,29.96,5,1,12,0.00
2012-6-28,106.0,88.3,67.1,66.2,55.2,46.4,67,37,15,30.10,30.02,4,1,11,0.00
2012-6-29,104.2,88.9,72.3,69.6,63.7,57.0,79,47,23,30.08,29.92,4,1,11,0.00
2012-6-30,103.3,88.3,70.2,70.4,63.2,51.8,87,48,20,30.02,29.91,4,1,11,0.00
2012-7-1,102.6,87.5,73.8,74.7,64.4,46.9,99,51,16,30.11,29.98,7,1,12,0.22
2012-7-2,98.4,84.7,70.9,80.0,70.7,68.3,99,66,39,30.14,30.02,4,1,14,0.04
2012-7-3,101.5,83.2,72.9,82.3,67.7,58.1,93,64,31,30.11,29.97,4,0,10,0.11
2012-7-4,103.3,87.1,69.1,72.9,62.1,50.0,80,48,18,30.11,29.97,4,1,13,0.00
2012-7-5,105.8,90.1,72.7,70.5,63.1,49.5,80,45,16,30.14,30.01,6,1,10,0.00
2012-7-6,106.3,90.5,74.1,71.1,66.3,57.3,80,49,21,30.13,30.01,4,0,8,0.00
2012-7-7,106.7,85.9,76.6,77.7,72.2,63.9,91,67,26,30.12,30.05,5,0,15,0.07
2012-7-8,104.4,81.3,69.8,75.8,71.4,64.3,99,78,29,30.13,29.98,9,1,18,0.00
2012-7-9,89.6,77.1,70.3,79.9,73.9,70.1,99,90,63,30.12,30.02,4,0,14,0.31
2012-7-10,95.7,83.2,70.5,75.6,67.3,57.0,99,64,29,30.11,30.01,4,1,16,0.00
2012-7-11,96.1,83.5,67.1,74.7,65.5,59.6,99,60,31,30.12,30.02,6,1,13,0.00
2012-7-12,98.1,85.0,68.5,73.7,66.0,60.5,99,57,30,30.11,30.02,5,1,12,0.00
2012-7-13,99.0,83.4,68.2,73.6,68.6,62.5,99,65,32,30.14,30.05,5,1,11,0.00
2012-7-14,85.3,77.8,71.2,73.8,70.1,65.1,99,78,52,30.17,30.08,4,1,10,0.00
2012-7-15,96.3,81.6,66.6,76.8,70.2,66.3,99,73,40,30.18,30.05,6,1,11,0.00
2012-7-16,96.8,85.7,72.1,76.3,71.9,65.3,99,66,37,30.13,29.97,4,1,8,0.00
2012-7-17,100.8,87.4,73.6,74.9,70.6,65.2,93,61,33,30.07,29.95,4,1,11,0.00
2012-7-18,104.2,89.4,73.2,74.7,67.9,58.3,90,54,25,30.10,29.95,4,1,11,0.00
2012-7-19,106.5,88.4,77.9,73.2,67.8,56.9,79,55,20,30.13,29.96,4,0,9,0.00
2012-7-20,101.5,87.8,73.0,74.4,65.6,51.8,88,53,22,30.11,30.03,8,2,17,0.00
2012-7-21,100.0,90.2,75.9,72.6,62.3,49.6,81,43,20,30.15,30.05,5,1,12,0.00
2012-7-22,100.9,87.1,70.3,73.4,65.5,59.1,90,52,27,30.19,30.08,5,1,13,0.00
2012-7-23,104.0,90.3,75.6,76.5,69.6,64.1,91,54,29,30.21,30.07,4,1,11,0.00
2012-7-24,102.4,89.9,75.0,75.3,69.3,65.4,83,53,33,30.15,29.97,4,1,13,0.00
2012-7-25,104.2,90.9,75.7,74.4,68.8,63.2,85,52,28,30.02,29.84,5,1,16,0.00
2012-7-26,101.3,87.2,77.0,76.2,72.2,67.4,97,62,39,30.02,29.86,6,1,11,0.00
2012-7-27,106.5,88.0,69.1,76.5,66.0,50.4,99,57,18,30.10,30.00,6,1,12,0.00
2012-7-28,105.3,87.7,66.0,67.0,58.4,51.3,88,43,19,30.18,30.08,6,1,11,0.00
2012-7-29,109.6,91.0,76.3,71.8,65.4,56.4,74,47,19,30.14,29.96,4,1,11,0.00
2012-7-30,109.4,92.9,78.3,69.2,61.7,49.7,64,39,14,30.05,29.93,4,1,14,0.00
2012-7-31,98.2,87.4,80.2,75.6,69.9,64.1,73,57,33,30.07,29.96,4,1,10,0.00
2012-8-1,108.3,88.0,75.2,76.1,71.7,62.7,99,63,26,30.04,29.87,7,1,16,0.02
2012-8-2,104.2,87.4,77.2,76.5,72.6,67.1,92,65,32,29.94,29.78,5,2,13,0.00
2012-8-3,104.9,90.4,78.1,76.0,70.5,63.2,86,55,29,29.94,29.84,4,1,11,0.00
2012-8-4,109.9,91.9,74.1,73.9,69.7,62.0,99,54,24,30.08,29.88,5,1,23,0.02
2012-8-5,94.6,80.3,70.2,78.0,66.9,52.5,99,71,27,30.23,30.07,8,1,15,0.15
2012-8-6,99.3,83.3,64.9,71.9,62.9,52.8,99,57,25,30.22,30.05,5,1,10,0.00
2012-8-7,103.3,86.3,69.1,72.8,61.5,50.6,80,49,18,30.10,30.00,4,1,11,0.00
2012-8-8,104.2,80.3,68.9,72.7,67.1,62.5,99,68,31,30.08,29.95,7,1,23,0.31
2012-8-9,93.7,81.8,66.9,73.8,68.5,63.6,99,67,43,30.05,29.91,8,1,17,0.00
2012-8-10,88.2,76.0,62.2,68.1,59.0,47.5,99,61,25,30.08,29.99,8,2,19,0.00
2012-8-11,90.5,75.1,56.5,64.2,55.7,49.9,99,56,26,30.16,30.02,5,1,11,0.00
2012-8-12,90.1,77.3,67.3,66.4,62.4,57.1,81,61,42,30.10,29.94,5,1,13,0.00
2012-8-13,81.9,73.5,66.7,69.7,66.2,63.2,94,78,56,30.10,29.95,6,1,12,0.00
2012-8-14,77.5,68.0,59.7,67.7,63.6,59.5,99,87,61,30.15,30.00,4,1,9,0.01
2012-8-15,95.7,82.5,66.0,69.1,66.7,63.3,94,62,41,30.06,29.91,4,1,14,0.00
2012-8-16,102.4,81.9,67.3,76.3,71.1,67.0,99,74,33,30.11,29.91,5,1,22,0.61
2012-8-17,85.1,72.8,61.5,68.3,58.4,48.7,99,66,32,30.17,30.03,6,1,12,0.27
2012-8-18,86.4,71.9,55.0,66.6,58.4,51.0,99,67,32,30.08,29.94,4,0,10,0.00
2012-8-19,89.4,74.2,59.9,70.0,60.3,46.3,99,68,26,30.07,29.97,5,1,11,0.00
2012-8-20,91.2,73.9,55.4,63.1,50.9,38.8,98,53,17,30.11,30.02,8,1,14,0.00
2012-8-21,96.8,77.2,57.7,60.3,50.8,35.1,96,49,12,30.15,30.08,3,0,7,0.00
2012-8-22,97.3,79.4,61.5,65.5,55.9,44.5,86,50,19,30.20,30.08,4,0,11,0.00
2012-8-23,95.7,79.7,63.0,63.0,56.4,48.4,89,50,22,30.20,30.05,5,1,13,0.00
2012-8-24,93.2,79.2,64.6,64.8,58.3,52.5,83,52,30,30.12,29.99,6,1,14,0.00
2012-8-25,87.1,76.4,72.1,76.0,69.8,58.7,99,81,51,30.03,29.98,5,1,21,0.06
2012-8-26,86.2,76.3,70.9,78.4,74.1,70.6,99,93,71,30.11,30.02,6,1,14,0.09
2012-8-27,93.2,79.7,70.5,79.1,69.8,56.2,99,75,42,30.18,30.09,7,1,14,0.00
2012-8-28,94.1,79.2,60.8,71.1,62.3,56.6,99,62,29,30.21,30.06,4,1,14,0.00
2012-8-29,97.0,82.1,66.6,65.5,53.8,28.8,92,47,10,30.12,29.98,6,1,13,0.00
2012-8-30,97.9,83.0,68.4,73.2,64.9,55.9,87,57,33,30.06,29.94,8,2,17,0.00
2012-8-31,77.2,73.6,70.3,75.5,73.1,70.1,99,98,87,29.99,29.81,5,2,17,1.59
2012-9-1,72.5,70.9,69.3,72.2,70.7,69.0,99,99,99,30.00,29.88,5,1,14,0.43
2012-9-2,92.3,78.9,69.4,77.0,72.6,69.2,99,83,57,30.04,29.95,4,0,8,0.00
2012-9-3,99.9,83.1,66.6,78.7,73.1,66.3,99,76,42,30.02,29.93,4,0,8,0.00
2012-9-4,98.1,85.7,73.6,79.5,75.8,68.3,99,75,39,30.02,29.89,4,1,10,0.00
2012-9-5,97.0,84.8,74.7,78.3,72.2,67.1,94,69,41,29.97,29.89,4,0,8,0.00
2012-9-6,101.3,81.8,71.2,78.5,72.4,64.7,99,76,41,30.03,29.93,7,1,14,0.00
2012-9-7,99.5,77.4,63.3,77.5,70.1,63.1,99,83,39,30.07,29.76,14,2,27,0.69
2012-9-8,76.8,65.2,55.2,63.2,56.1,51.1,99,76,42,30.20,30.08,7,2,17,0.01
2012-9-9,80.6,66.8,53.2,60.5,55.6,52.5,99,71,41,30.21,30.11,6,1,12,0.00
2012-9-10,82.0,68.5,53.2,59.0,56.1,53.0,99,68,40,30.27,30.14,115,1,115,0.00
2012-9-11,90.0,74.0,59.0,66.9,61.4,56.4,99,68,37,30.22,30.10,4,1,10,0.01
2012-9-12,87.1,74.8,62.4,66.5,62.5,59.0,98,68,40,30.23,30.11,5,1,13,0.00
2012-9-13,90.0,72.2,60.4,71.4,64.9,59.8,99,80,46,30.32,30.18,8,2,20,0.00
2012-9-14,63.5,59.8,55.6,63.2,59.5,55.3,99,99,99,30.36,30.30,6,2,13,0.01
2012-9-15,64.8,60.8,58.1,64.5,60.5,57.8,99,99,99,30.32,30.17,3,0,10,2.98
2012-9-16,75.7,66.9,61.2,73.2,66.1,60.9,99,97,87,30.18,30.05,2,0,7,0.00
2012-9-17,79.5,68.9,62.8,70.8,66.5,62.5,99,93,68,30.06,29.90,4,0,12,0.01
2012-9-18,73.0,61.0,48.7,63.7,51.1,41.8,99,74,37,30.17,29.98,6,1,15,0.01
2012-9-19,79.5,64.0,48.7,55.1,51.3,45.5,99,68,38,30.21,30.05,6,1,13,0.00
2012-9-20,84.0,68.8,55.8,65.3,55.6,48.0,99,66,36,30.11,30.04,3,0,8,0.00
2012-9-21,86.0,69.9,59.7,71.1,60.0,50.8,99,74,40,30.08,29.91,4,1,17,0.56
2012-9-22,85.6,63.9,49.6,58.3,48.7,37.7,99,63,29,30.29,30.04,5,1,14,0.01
2012-9-23,73.6,59.2,44.6,48.7,42.9,36.9,94,58,29,30.38,30.26,4,1,11,0.00
2012-9-24,78.3,65.4,52.9,63.7,54.3,46.3,85,69,51,30.28,29.99,8,2,17,0.00
2012-9-25,91.6,77.4,64.9,71.2,65.7,61.5,99,70,44,30.05,29.91,7,1,16,0.00
2012-9-26,79.0,69.8,62.2,73.3,67.0,60.9,99,91,65,30.16,30.00,5,0,10,0.17
2012-9-27,78.6,69.5,64.2,75.0,68.1,64.0,99,95,77,30.21,30.12,4,0,24,0.76
2012-9-28,83.1,69.7,64.8,75.1,68.4,64.5,99,96,66,30.19,30.11,5,1,12,0.07
2012-9-29,78.8,67.2,59.5,64.5,59.3,55.1,99,78,49,30.19,30.06,5,1,10,0.00
2012-9-30,76.5,64.4,54.7,61.5,58.1,54.4,99,82,53,30.08,29.92,3,0,7,0.00
2012-10-1,75.2,65.4,53.1,59.3,53.9,49.5,99,69,44,29.96,29.87,7,2,17,0.00
2012-10-2,77.5,60.7,47.7,59.9,54.2,47.4,99,82,52,30.04,29.95,4,0,9,0.00
2012-10-3,81.9,63.6,50.9,62.1,54.7,47.9,99,78,34,30.15,30.04,4,0,8,0.00
2012-10-4,86.2,68.5,57.2,66.0,61.1,54.9,99,80,46,30.27,30.14,4,1,10,0.00
2012-10-5,59.2,47.6,37.4,54.7,46.4,37.1,99,96,84,30.34,30.23,8,3,27,0.14
2012-10-6,50.7,42.0,34.5,42.3,38.6,34.3,99,89,63,30.39,30.32,5,1,12,0.01
2012-10-7,58.5,44.4,30.4,41.9,36.0,30.1,99,76,39,30.40,30.26,4,0,10,0.00
2012-10-8,63.5,47.5,32.7,44.0,38.6,32.5,99,76,41,30.32,30.14,4,1,11,0.00
2012-10-9,70.3,54.5,41.7,57.7,49.1,41.5,99,84,51,30.17,30.01,5,1,14,0.00
2012-10-10,65.3,50.3,39.6,54.2,42.4,33.9,99,78,32,30.40,30.17,5,1,14,0.00
2012-10-11,64.0,55.7,45.7,58.5,50.3,40.2,99,82,71,30.30,30.18,5,1,11,0.00
2012-10-12,64.6,58.9,56.8,64.0,58.6,56.6,99,99,96,30.37,30.24,5,1,13,1.10
2012-10-13,75.9,64.3,57.0,71.8,63.2,56.8,99,96,79,30.25,29.86,8,2,16,3.21
2012-10-14,73.9,62.8,50.5,63.6,58.0,50.2,99,86,56,30.14,29.76,5,1,16,0.24
2012-10-15,82.2,62.2,45.1,58.7,52.3,44.9,99,75,36,30.15,30.01,3,0,6,0.00
2012-10-16,82.9,66.3,51.1,56.3,50.1,39.6,99,63,24,30.02,29.75,6,1,17,0.00
2012-10-17,69.8,59.0,47.7,65.8,57.1,45.6,99,94,70,29.81,29.57,6,1,14,0.01
2012-10-18,65.1,54.4,42.4,45.5,37.4,29.3,94,57,28,29.90,29.81,5,1,14,0.00
2012-10-19,55.8,50.7,42.4,45.9,42.8,39.0,99,75,58,29.96,29.79,4,1,13,0.00
2012-10-20,78.6,58.1,38.8,51.5,45.9,38.6,99,70,28,30.00,29.89,4,1,11,0.00
2012-10-21,80.4,67.7,57.4,71.8,61.8,51.1,99,82,66,30.01,29.93,5,1,15,0.00
2012-10-22,85.3,72.7,66.0,72.3,69.2,65.8,99,90,62,30.06,29.96,5,2,20,0.00
2012-10-23,84.7,71.2,60.3,73.0,65.8,60.0,99,84,62,30.08,29.95,6,1,14,1.42
2012-10-24,84.9,72.9,62.4,70.8,66.4,62.2,99,82,58,30.07,29.93,8,2,19,0.00
2012-10-25,79.5,58.6,43.7,70.6,56.9,41.1,99,94,69,30.29,29.91,8,3,21,0.07
2012-10-26,52.0,42.3,35.1,40.9,35.6,32.6,95,78,52,30.44,30.28,11,4,21,0.00
2012-10-27,53.8,39.2,28.9,36.4,32.6,28.7,99,80,47,30.43,30.28,8,1,13,0.00
2012-10-28,56.7,40.4,26.8,40.3,32.2,26.6,99,76,41,30.40,30.30,5,1,11,0.00
2012-10-29,63.3,43.3,29.7,39.1,33.3,29.4,99,73,31,30.42,30.21,4,0,7,0.00
2012-10-30,56.8,39.8,32.2,40.8,35.2,31.7,99,86,47,30.22,29.91,2,0,4,0.00
2012-10-31,68.0,51.2,38.8,41.6,36.6,30.3,90,61,26,30.00,29.91,4,1,9,0.00
2012-11-1,77.0,55.1,36.0,50.0,43.7,35.7,99,71,33,29.99,29.86,3,0,8,0.01
2012-11-2,76.6,59.2,41.9,54.4,49.4,41.6,99,73,44,29.94,29.82,6,1,12,0.00
2012-11-3,63.5,53.5,39.0,53.0,45.9,38.8,99,77,51,30.12,29.85,4,1,10,0.00
2012-11-4,68.9,49.4,34.5,47.6,40.4,34.3,99,75,39,30.17,30.01,3,0,7,0.00
2012-11-5,58.8,47.8,42.6,52.7,45.8,42.0,99,93,71,30.02,29.91,4,1,11,0.07
2012-11-6,60.4,46.3,37.4,48.9,42.9,36.0,99,89,63,30.02,29.92,3,0,14,0.01
2012-11-7,61.0,44.4,34.9,41.8,37.4,33.5,98,79,46,30.08,29.98,8,1,17,0.00
2012-11-8,69.1,51.3,37.2,44.9,41.1,36.2,99,71,41,30.10,29.92,6,2,17,0.00
2012-11-9,79.0,61.9,49.3,63.6,55.1,44.1,97,80,56,29.95,29.82,8,3,17,0.00
2012-11-10,79.0,65.5,55.4,59.9,55.8,50.4,96,74,37,29.94,29.78,10,3,29,0.00
2012-11-11,68.9,52.5,32.4,63.2,50.8,32.1,99,94,75,30.14,29.73,9,2,20,0.70
2012-11-12,51.3,36.2,23.5,33.1,27.5,23.3,99,75,34,30.38,30.14,5,1,12,0.01
2012-11-13,61.0,41.7,25.9,37.6,29.4,25.4,99,67,26,30.43,30.29,4,0,8,0.00
2012-11-14,61.7,45.4,32.5,35.1,30.6,26.1,91,60,26,30.37,30.23,4,0,7,0.00
2012-11-15,64.0,45.4,31.6,36.9,33.0,28.5,91,66,31,30.31,30.23,3,0,8,0.00
2012-11-16,69.4,47.7,31.1,43.7,35.2,30.9,99,68,28,30.37,30.29,4,0,8,0.00
2012-11-17,66.6,48.9,36.1,35.8,32.5,28.0,89,57,26,30.38,30.25,5,1,12,0.01
2012-11-18,68.7,52.1,39.2,39.6,34.1,26.2,78,53,21,30.29,30.14,6,2,12,0.00
2012-11-19,59.5,50.4,43.5,53.5,47.2,39.4,99,90,60,30.18,30.06,6,1,12,0.19
2012-11-20,70.3,52.9,38.8,54.8,46.6,38.6,99,82,47,30.00,29.90,4,1,8,0.00
2012-11-21,72.3,51.5,33.8,53.3,41.5,33.6,99,74,30,30.06,29.88,4,1,9,0.00
2012-11-22,68.2,57.2,47.5,56.7,48.8,42.5,99,74,52,29.95,29.72,8,2,17,0.01
2012-11-23,54.1,39.7,26.4,47.4,30.1,22.7,97,70,47,30.17,29.96,9,2,18,0.00
2012-11-24,51.1,36.3,20.7,27.7,22.7,17.7,98,62,30,30.16,29.79,5,1,11,0.00
2012-11-25,70.0,48.3,33.8,40.8,33.4,26.1,79,59,31,29.79,29.65,4,1,7,0.00
2012-11-26,42.4,39.5,30.0,38.8,34.9,29.3,97,84,66,30.14,29.73,10,3,19,0.00
2012-11-27,51.1,33.7,21.0,29.5,24.5,19.6,99,73,33,30.20,30.06,8,1,13,0.00
2012-11-28,96.6,36.8,23.2,74.4,30.1,23.0,99,79,40,30.19,29.48,4,1,10,15.13
2012-11-29,68.4,49.7,36.7,40.5,36.6,32.6,96,65,34,29.86,29.69,8,2,16,0.00
2012-11-30,70.3,55.0,41.4,56.6,47.0,35.4,99,75,56,29.77,29.67,5,1,10,0.00
2012-12-1,72.0,61.4,52.2,63.2,58.7,51.9,99,91,71,29.70,29.50,9,3,21,0.00
2012-12-2,77.4,64.6,55.0,67.9,60.9,54.8,99,89,61,29.69,29.57,6,1,14,0.00
2012-12-3,77.7,66.1,59.4,64.9,60.2,57.6,99,83,53,29.61,29.47,11,3,23,0.02
2012-12-4,63.1,51.8,35.8,62.0,45.2,35.3,99,81,40,29.95,29.60,11,3,17,0.51
2012-12-5,64.0,47.1,31.5,45.5,35.1,30.0,99,69,28,29.96,29.70,6,1,17,0.00
2012-12-6,64.0,50.3,39.9,51.3,45.0,35.2,99,83,62,29.70,29.48,5,1,12,0.00
2012-12-7,55.8,52.1,48.7,54.8,51.8,48.5,99,99,94,29.53,29.44,3,0,8,0.01
2012-12-8,52.5,49.2,46.6,52.3,48.9,46.3,99,99,99,29.58,29.45,4,2,10,0.00
2012-12-9,52.2,45.8,27.1,51.9,45.0,22.1,99,97,80,29.63,29.41,7,2,15,0.05
2012-12-10,34.9,25.0,18.1,26.1,21.4,17.9,99,87,68,29.70,29.59,8,2,14,0.00
2012-12-11,52.3,31.1,16.2,28.3,21.6,16.0,99,73,28,29.83,29.67,5,1,11,0.00
2012-12-12,56.1,37.6,23.9,26.5,21.0,14.0,90,56,22,29.91,29.81,6,2,13,0.00
2012-12-13,63.1,44.4,31.5,29.9,25.4,20.3,71,49,24,29.87,29.74,8,2,18,0.00
2012-12-14,52.0,44.1,35.2,44.0,32.9,28.0,99,66,44,29.79,29.44,8,2,18,0.07
2012-12-15,66.2,52.9,43.3,52.5,45.5,40.0,99,78,49,29.44,29.29,10,3,21,0.05
2012-12-16,68.0,49.6,39.7,45.6,41.2,38.4,99,77,37,29.38,29.25,5,1,10,0.00
2012-12-17,40.8,37.5,31.8,40.6,37.3,31.6,99,99,99,29.43,29.32,4,1,10,0.00
2012-12-18,64.4,44.0,32.0,44.9,37.3,31.8,99,81,41,29.49,29.36,8,1,15,0.00
2012-12-19,59.4,50.3,35.4,59.1,47.7,35.2,99,91,77,29.50,29.04,8,3,24,0.25
2012-12-20,57.2,35.4,26.8,56.9,32.3,20.7,99,89,67,29.84,28.99,11,5,28,0.01
2012-12-21,51.1,35.0,21.0,23.8,21.0,17.2,93,60,28,29.96,29.83,5,1,11,0.00
2012-12-22,66.4,45.2,28.4,32.1,21.0,4.1,80,45,10,29.87,29.60,8,2,19,0.00
2012-12-23,64.6,49.4,36.1,51.5,41.5,31.4,98,75,54,29.60,29.43,5,1,10,0.00
2012-12-24,39.4,29.6,22.8,35.6,27.2,22.6,99,91,68,29.66,29.47,8,3,16,0.00
2012-12-25,30.4,25.4,20.5,26.8,23.5,19.7,99,92,79,29.73,29.59,14,6,26,0.00
2012-12-26,31.3,23.7,18.1,23.8,20.6,17.2,98,88,71,29.79,29.62,9,3,22,0.00
2012-12-27,37.8,29.3,19.9,31.0,25.9,19.7,99,88,67,29.75,29.56,7,2,15,0.00
2012-12-28,35.1,30.8,26.8,34.5,30.5,25.6,99,99,93,29.63,29.50,4,1,9,0.00
2012-12-29,38.3,25.8,20.5,25.4,21.2,19.3,97,83,55,29.98,29.63,6,2,14,0.01
2012-12-30,45.1,31.7,17.4,29.0,21.5,17.2,99,70,34,30.02,29.82,7,2,14,0.00
2012-12-31,35.8,34.3,31.8,35.5,32.7,23.4,99,95,62,29.83,29.61,3,0,8,0.26
2013-1-1,90.1,27.8,16.9,74.4,27.4,16.7,99,99,60,29.98,29.61,8,1,14,0.00